Weather History for Lewistown, MT

Change the Weather History Date:

Monday, April 28, 2014

  Actual Average Record
Temperature  
Mean Temperature 42 °F 45 °F  
Max Temperature 51 °F 58 °F 86 °F (1939)
Min Temperature 33 °F 32 °F 9 °F (1907)
Degree Days  
Heating Degree Days 23 20  
Month to date heating degree days 671 669  
Since 1 July heating degree days 7844 7468  
Cooling Degree Days 0 0  
Month to date cooling degree days 0 0  
Year to date cooling degree days 0 0  
Moisture  
Dew Point 26 °F    
Average Humidity 58    
Maximum Humidity 82    
Minimum Humidity 34    
Precipitation  
Precipitation T in 0.06 in 0.82 in (1970)
Month to date precipitation 1.01 1.29  
Year to date precipitation 3.76 3.29  
Snow  
Snow 0.00 in - - ()
Snow Depth 0.00 in    
Sea Level Pressure  
Sea Level Pressure 30.01 in    
Wind  
Wind Speed 15 mph (WNW)    
Max Wind Speed 33 mph    
Max Gust Speed 44 mph    
Visibility 10 miles    
Events Rain    
T = Trace of Precipitation, MM = Missing Value Source: NWS Daily Summary

Daily Weather History Graph

Daily Weather History Graph

Search for Another Location

Airport:

Trip Planner

Search our weather history database for the weather conditions in past years. The results will help you decide how hot, cold, wet, or windy it might be!

Date:

Astronomy

Apr. 28, 2014 Rise Set
Actual Time 6:06 AM MDT 8:24 PM MDT
Civil Twilight 5:33 AM MDT 8:58 PM MDT
Nautical Twilight 4:51 AM MDT 9:40 PM MDT
Astronomical Twilight 4:04 AM MDT 10:27 PM MDT
Moon 5:51 AM MDT (4/28) 8:04 PM MDT (4/28)
Length of Visible Light 15h 24m
Length of Day
14h 17m
Waning Crescent, 0% of the Moon is Illuminated
Apr 28
Waning Crescent
Apr 29
New
May 6
First Quarter
May 14
Full
May 21
Last Quarter

Hourly Weather History & Observations

Time (MDT) Temp. Windchill Dew Point Humidity Pressure Visibility Wind Dir Wind Speed Gust Speed Precip Events Conditions
2:54 AM 36.0 °F 28.5 °F 28.0 °F 73% 29.76 in 10.0 mi WNW 10.4 mph - N/A   Overcast
3:54 AM 37.0 °F 29.3 °F 27.0 °F 67% 29.78 in 10.0 mi WNW 11.5 mph - N/A   Overcast
4:54 AM 35.1 °F 26.9 °F 25.0 °F 67% 29.80 in 10.0 mi WNW 11.5 mph - N/A   Overcast
5:54 AM 34.0 °F 26.6 °F 24.1 °F 67% 29.83 in 10.0 mi WNW 9.2 mph - N/A   Mostly Cloudy
6:54 AM 36.0 °F 27.5 °F 21.9 °F 57% 29.86 in 10.0 mi WNW 12.7 mph 20.7 mph N/A   Clear
7:54 AM 37.9 °F 32.7 °F 23.0 °F 55% 29.87 in 10.0 mi WNW 6.9 mph - N/A   Clear
8:54 AM 41.0 °F 31.6 °F 21.9 °F 47% 29.91 in 10.0 mi WNW 20.7 mph 26.5 mph N/A   Clear
9:54 AM 44.1 °F 35.7 °F 21.9 °F 42% 29.91 in 10.0 mi WNW 20.7 mph 29.9 mph N/A   Clear
10:54 AM 46.0 °F 38.8 °F 21.9 °F 39% 29.93 in 10.0 mi WNW 18.4 mph 28.8 mph N/A   Scattered Clouds
11:54 AM 46.9 °F - 21.9 °F 37% 29.96 in 10.0 mi NW 20.7 mph 32.2 mph N/A   Overcast
12:54 PM 48.0 °F - 21.9 °F 36% 29.95 in 10.0 mi NW 20.7 mph 34.5 mph N/A   Mostly Cloudy
1:54 PM 48.9 °F - 21.0 °F 33% 29.96 in 10.0 mi NW 17.3 mph 38.0 mph N/A   Mostly Cloudy
2:54 PM 48.9 °F - 21.9 °F 35% 29.98 in 10.0 mi NW 19.6 mph 32.2 mph N/A   Overcast
3:54 PM 50.0 °F - 24.1 °F 36% 30.01 in 10.0 mi NW 21.9 mph 29.9 mph N/A   Mostly Cloudy
4:54 PM 48.9 °F - 26.1 °F 41% 30.06 in 10.0 mi WNW 28.8 mph 43.7 mph N/A   Scattered Clouds
5:54 PM 39.9 °F 31.1 °F 34.0 °F 79% 30.16 in 10.0 mi NW 17.3 mph 31.1 mph 0.00 in Rain Light Rain
6:54 PM 41.0 °F 33.9 °F 33.1 °F 73% 30.18 in 10.0 mi NNW 12.7 mph 23.0 mph 0.00 in   Overcast
7:54 PM 43.0 °F 36.8 °F 32.0 °F 65% 30.19 in 10.0 mi NW 11.5 mph - N/A   Mostly Cloudy
8:54 PM 39.9 °F 34.5 °F 32.0 °F 73% 30.21 in 10.0 mi WNW 8.1 mph - N/A   Clear
9:54 PM 37.0 °F 30.4 °F 32.0 °F 82% 30.25 in 10.0 mi West 9.2 mph - N/A   Mostly Cloudy
10:54 PM 36.0 °F 29.0 °F 30.9 °F 82% 30.27 in 10.0 mi West 9.2 mph - N/A   Clear
11:54 PM 33.1 °F 25.5 °F 28.0 °F 82% 30.30 in 10.0 mi WSW 9.2 mph - N/A   Clear